[Date Prev][Date Next][Thread Prev][Thread Next] - [Date Index][Thread Index][Author Index]
2 Line ISS Keps 9-25
- Subject: [sarex] 2 Line ISS Keps 9-25
- From: "Dave Larsen PhD" <doc@xxxxxxxxxxx>
- Date: Tue, 25 Sep 2007 17:33:03 -0700
ISS
1 25544U 98067A 07268.68181910 .00055993 00000-0 36637-3 0 470
2 25544 051.6353 305.3750 0002655 035.8721 063.9765 15.75239193506633
----
Sent via sarex@amsat.org. Opinions expressed are those of the author.
Not an AMSAT member? Join now to support the amateur satellite program!
Subscription settings: http://amsat.org/mailman/listinfo/sarex
AMSAT Home